Back to catalog

STARLINK-4362

AliveCommunicationsSSO
NORAD 53043·PAYLOAD·🇺🇸 United States

Launched Jul 11, 2022 from Vandenberg Space Force Base

Loading…

Next Passes (next 24 hours)

TLE

FreshSource: CelesTrak SupGP

Epoch: Sep 14, 2026, 14:36 UTC

1 53043C 22077A   26257.60881944 -.00071649  00000+0 -22249-2 0  2571
2 53043  97.2851  72.4966 0001413  90.2767 277.6191 15.33464833    17

Track STARLINK-4362 in real time with AllMySat

Download on the App Store